Location: Recife
(8.0585°S, 34.8848°W)
Time: 11:28:32
(UTC-03:00)

Vanguard 2 Rocket - Pass Details

Date: 14 April 2026
Orbit: 553 x 3286 km, 32.9° (Epoch: 8 May)

Event Time Altitude Azimuth Distance (km) Brightness Sun altitude
Rises 03:51:33 0° 317° (NW) 3,083 - -23.0°
Reaches altitude 10° 03:53:34 10° 322° (NW) 2,342 - -22.5°
Exits shadow 03:54:41 18° 327° (NNW) 1,962 8.4 -22.2°
Maximum altitude 03:58:53 54° 40° (NE) 1,276 7.8 -21.2°
Drops below altitude 10° 04:08:01 10° 115° (ESE) 3,943 11.0 -18.9°
Sets 04:12:22 0° 118° (ESE) 5,411 11.8 -17.9°
